Weather History for Nome, AK

Change the Weather History Date:

Tuesday, October 1, 2013

  Actual Average Record
Temperature  
Mean Temperature 28 °F 36 °F  
Max Temperature 36 °F 42 °F 59 °F (1954)
Min Temperature 19 °F 30 °F 16 °F (1919)
Degree Days  
Heating Degree Days 37 29  
Month to date heating degree days 37 29  
Since 1 July heating degree days 1557 1559  
Cooling Degree Days 0    
Month to date cooling degree days 0  
Year to date cooling degree days 7  
Moisture  
Dew Point 21 °F    
Average Humidity 0    
Maximum Humidity 0    
Minimum Humidity 0    
Precipitation  
Precipitation 0.00 in 0.07 in 0.56 in (1922)
Month to date precipitation 0.00 0.07  
Year to date precipitation 15.09 12.97  
Snow  
Snow 0.00 in 0.10 in 2.00 in (1919)
Month to date snowfall 0.0 0.1  
Since 1 July snowfall 1.1 0.7  
Since 1 September snowfall 1.1 0.7  
Snow Depth 0.00 in    
Sea Level Pressure  
Sea Level Pressure 30.09 in    
Wind  
Wind Speed 2 mph (WSW)    
Max Wind Speed 8 mph    
Max Gust Speed 10 mph    
Visibility 10 miles    
Events      
T = Trace of Precipitation, MM = Missing Value Source: NWS Daily Summary

Daily Weather History Graph

Daily Weather History Graph

Search for Another Location

Airport:

Trip Planner

Search our weather history database for the weather conditions in past years. The results will help you decide how hot, cold, wet, or windy it might be!

Date:

Astronomy

Oct. 01, 2013 Rise Set
Actual Time 9:12 AM AKDT 8:28 PM AKDT
Civil Twilight 8:24 AM AKDT 9:16 PM AKDT
Nautical Twilight 7:27 AM AKDT 10:13 PM AKDT
Astronomical Twilight 6:25 AM AKDT 11:14 PM AKDT
Moon 5:02 AM AKDT (10/1) 7:22 PM AKDT (10/1)
Length of Visible Light 12h 52m
Length of Day
11h 15m
Waning Crescent, 11% of the Moon is Illuminated
Oct 1
Waning Crescent
Oct 4
New
Oct 11
First Quarter
Oct 18
Full
Oct 26
Last Quarter

Hourly Weather History & Observations

Time (AKDT) Temp. Windchill Dew Point Humidity Pressure Visibility Wind Dir Wind Speed Gust Speed Precip Events Conditions
12:53 AM 26.1 °F 18.4 °F 19.0 °F 75% 30.11 in 10.0 mi NW 6.9 mph - N/A   Partly Cloudy
1:53 AM 26.1 °F 17.6 °F 19.0 °F 75% 30.11 in 10.0 mi NNW 8.1 mph - N/A   Partly Cloudy
2:53 AM 25.0 °F - 19.0 °F 78% 30.11 in 10.0 mi Calm Calm - N/A   Partly Cloudy
3:53 AM 23.0 °F - 18.0 °F 81% 30.11 in 10.0 mi Calm Calm - N/A   Clear
4:53 AM 21.9 °F - 18.0 °F 85% 30.11 in 10.0 mi Calm Calm - N/A   Clear
5:53 AM 21.0 °F - 17.1 °F 85% 30.12 in 10.0 mi Calm Calm - N/A   Clear
6:53 AM 19.9 °F - 16.0 °F 85% 30.12 in 10.0 mi Calm Calm - N/A   Clear
7:53 AM 19.9 °F - 16.0 °F 85% 30.12 in 10.0 mi Calm Calm - N/A   Clear
8:53 AM 21.0 °F 14.6 °F 15.1 °F 78% 30.11 in 10.0 mi North 4.6 mph - N/A   Clear
9:53 AM 21.0 °F - 16.0 °F 81% 30.11 in 9.0 mi Calm Calm - N/A   Clear
10:53 AM 26.1 °F - 19.0 °F 75% 30.11 in 10.0 mi Calm Calm - N/A   Clear
11:53 AM 30.9 °F - 21.9 °F 69% 30.11 in 10.0 mi Calm Calm - N/A   Clear
12:53 PM 33.1 °F - 19.0 °F 56% 30.11 in 10.0 mi Calm Calm - N/A   Clear
1:53 PM 34.0 °F 31.0 °F 21.9 °F 61% 30.11 in 10.0 mi South 3.5 mph - N/A   Clear
2:53 PM 34.0 °F 28.0 °F 21.9 °F 61% 30.10 in 10.0 mi SSW 6.9 mph - N/A   Clear
3:53 PM 35.1 °F 29.3 °F 21.9 °F 59% 30.09 in 10.0 mi SW 6.9 mph - N/A   Partly Cloudy
4:53 PM 35.1 °F 31.0 °F 24.1 °F 64% 30.07 in 10.0 mi SSW 4.6 mph - N/A   Scattered Clouds
5:53 PM 35.1 °F 31.0 °F 24.1 °F 64% 30.07 in 10.0 mi SW 4.6 mph - N/A   Scattered Clouds
6:53 PM 36.0 °F 32.1 °F 26.1 °F 67% 30.06 in 10.0 mi SW 4.6 mph - N/A   Clear
7:53 PM 35.1 °F - 26.1 °F 70% 30.05 in 8.0 mi Calm Calm - N/A   Scattered Clouds
8:53 PM 30.9 °F 26.2 °F 25.0 °F 79% 30.04 in 10.0 mi WNW 4.6 mph - N/A   Scattered Clouds
9:53 PM 28.9 °F - 25.0 °F 85% 30.04 in 10.0 mi Calm Calm - N/A   Scattered Clouds
10:53 PM 26.1 °F - 23.0 °F 88% 30.04 in 10.0 mi Calm Calm - N/A   Scattered Clouds
11:53 PM 26.1 °F - 21.0 °F 81% 30.04 in 10.0 mi Calm Calm - N/A   Scattered Clouds